Location: Bun Machan
(52.1403°N, 7.3744°W)
Time: 08:11:06
(UTC+00:00)

NOSS 2-1 (D) - Pass Details

Date: 14 July 2020
Orbit: 447 x 1756 km, 63.3° (Epoch: 01 August)

Event Time Altitude Azimuth Distance (km) Brightness Sun altitude
Rises 00:27:36 0° 314° (NW) 2,865 7.7 -16.2°
Reaches altitude 10° 00:29:35 10° 317° (NW) 2,085 7.0 -16.2°
Maximum altitude 00:34:18 70° 42° (NE) 870 4.4 -16.2°
Drops below altitude 10° 00:40:55 10° 126° (SE) 2,890 6.6 -16.2°
Enters shadow 00:43:40 - 128° (SE) 3,920 7.3 -16.2°
